[[{"header":{"parameterUnit":"m.s-1","parameterCategory":1,"la1":30.2991,"la2":30.254,"lo1":-89.0895,"lo2":-89.0444,"dy":0.0017,"dx":0.0017,"nx":28,"ny":28,"refTime":"2025-12-19T09:00:00:Z","depth":0,"parameterNumber":2,"parameterNumberName":"U-component_of_WINDS"},"data":[0,0,0,0,0,0,0,0,0,0,0,0,0,0,0,0,0,0,0,0,0,0,0,0,0,0,0,0,0,0,0,0,0,0,0,0,0,0,0,0,0,0,0,0,0,0,0,0,0,0,0,0,0,0,0,0,0,0,-0.8135,-0.8135,0,-0.8205,-0.8206,-0.8206,-0.8252,-0.8252,-0.8253,-0.8253,-0.8322,-0.8324,-0.8325,0,0,0,0,0,0,0,0,0,0,0,0,0,-0.8037,-0.8039,-0.8134,-0.8135,-0.8136,-0.8205,-0.8206,-0.8207,-0.8252,-0.8252,-0.8253,-0.8253,-0.8322,-0.8324,-0.8325,0,0,0,0,0,0,0,0,0,0,0,0,0,-0.8091,-0.8039,-0.8134,-0.8167,-0.8171,-0.8205,-0.8206,-0.8207,-0.8252,-0.8252,-0.8253,-0.8253,-0.8321,-0.8323,-0.8326,-0.8331,0,0,-0.8333,-0.8334,0,0,0,0,0,0,0,0,-0.8088,-0.8094,-0.8162,-0.8165,-0.8169,-0.822,-0.8197,-0.8248,-0.8252,-0.8221,-0.8253,-0.8254,-0.8288,-0.8293,-0.8305,-0.8335,-0.8337,-0.8333,-0.8335,-0.8336,-0.8336,0,0,0,0,0,0,0,-0.8084,-0.8091,-0.8162,-0.8162,-0.8167,-0.8178,-0.8186,-0.8207,-0.8251,-0.8224,-0.8227,-0.8235,-0.829,-0.8303,-0.8307,-0.8338,-0.8333,-0.8335,-0.8337,-0.8337,-0.8376,-0.8376,0,0,0,0,0,0,-0.8075,-0.8088,-0.816,-0.8164,-0.8129,-0.8179,-0.8188,-0.8203,-0.8251,-0.8259,-0.8235,-0.8237,-0.8298,-0.8304,-0.831,-0.8319,-0.8336,-0.8338,-0.8339,-0.8376,-0.8376,-0.8376,0,0,0,0,0,0,-0.8073,-0.8081,-0.8157,-0.8127,-0.8138,-0.818,-0.8197,-0.8205,-0.8217,-0.8259,-0.8267,-0.824,-0.8299,-0.8306,-0.8326,-0.8322,-0.8339,-0.8341,-0.8377,-0.8376,-0.8376,-0.8338,0,0,0,0,0,0,-0.807,-0.808,-0.8083,-0.8127,-0.8139,-0.8173,-0.8197,-0.8206,-0.8222,-0.8225,-0.8266,-0.8273,-0.83,-0.8322,-0.8328,-0.8326,-0.8343,-0.8377,-0.8377,-0.8376,-0.834,-0.8337,-0.8334,0,0,0,0,0,-0.8066,-0.8069,-0.8083,-0.8092,-0.8144,-0.8172,-0.8179,-0.8211,-0.8221,-0.8224,-0.8251,-0.8272,-0.8322,-0.8324,-0.8331,-0.8329,-0.8378,-0.8377,-0.8376,-0.8342,-0.8337,-0.8334,0,0,0,0,0,0,-0.8023,-0.8076,-0.8092,-0.8109,-0.8136,-0.818,-0.8185,-0.8205,-0.8229,-0.8232,-0.8269,-0.8278,-0.8293,-0.8313,-0.8314,-0.8337,-0.8352,-0.8353,-0.8323,-0.832,-0.8317,-0.8311,-0.8345,0,0,0,0,0,-0.8016,-0.8035,-0.808,-0.8091,-0.8104,-0.8142,-0.8155,-0.8178,-0.8207,-0.8218,-0.8247,-0.8273,-0.8295,-0.8309,-0.8331,-0.8343,-0.8353,-0.8346,-0.8342,-0.834,-0.8339,-0.8347,-0.8345,-0.8373,-0.8373,-0.8373,0,0,-0.8,-0.8031,-0.8041,-0.8083,-0.8106,-0.8125,-0.8151,-0.817,-0.8184,-0.8221,-0.8241,-0.8263,-0.8295,-0.8311,-0.8319,-0.8328,-0.8334,-0.8338,-0.8336,-0.8337,-0.8346,-0.8343,-0.8341,-0.8372,-0.8372,-0.8372,0,0,-0.7982,-0.8007,-0.802,-0.8043,-0.8079,-0.8104,-0.8107,-0.8148,-0.8164,-0.8186,-0.8214,-0.8231,-0.8267,-0.8289,-0.8305,-0.8295,-0.8315,-0.8302,-0.8284,-0.8292,-0.8289,-0.8288,-0.8284,-0.8282,-0.8301,-0.8301,-0.8301,0,-0.7958,-0.7988,-0.8023,-0.804,-0.8057,-0.8093,-0.8105,-0.8125,-0.8166,-0.8177,-0.8186,-0.8233,-0.8258,-0.8279,-0.8277,-0.8289,-0.8292,-0.8297,-0.8287,-0.8286,-0.8284,-0.8281,-0.828,-0.8299,-0.83,-0.83,-0.83,0,-0.7957,-0.7977,-0.7982,-0.8022,-0.804,-0.8054,-0.8091,-0.8104,-0.8125,-0.8149,-0.817,-0.82,-0.823,-0.8236,-0.8256,-0.8261,-0.8265,-0.828,-0.8296,-0.8279,-0.8277,-0.8276,-0.8297,-0.8297,-0.8298,-0.8298,0,0,-0.7912,-0.7972,-0.7973,-0.7991,-0.8034,-0.805,-0.8065,-0.8095,-0.8106,-0.8133,-0.8147,-0.8177,-0.8192,-0.821,-0.8232,-0.8239,-0.8229,-0.8253,-0.8254,-0.8247,-0.8235,-0.8223,-0.8221,-0.8242,-0.8242,-0.8242,-0.8232,0,-0.79,-0.7931,-0.7963,-0.7983,-0.8002,-0.8036,-0.805,-0.8077,-0.81,-0.8119,-0.8144,-0.8165,-0.8183,-0.8194,-0.8202,-0.8228,-0.8227,-0.8229,-0.8255,-0.8255,-0.8245,-0.822,-0.8208,-0.8197,-0.8232,-0.8231,-0.8231,0,-0.789,-0.7916,-0.7938,-0.7979,-0.7988,-0.8,-0.8029,-0.8047,-0.8078,-0.8095,-0.8115,-0.8139,-0.8157,-0.8171,-0.8196,-0.8197,-0.8209,-0.8224,-0.8224,-0.8227,-0.8242,-0.8222,-0.8194,-0.8192,-0.823,-0.823,-0.823,0,-0.7855,-0.7896,-0.7914,-0.7929,-0.7977,-0.7984,-0.8005,-0.8036,-0.8052,-0.8078,-0.8088,-0.8115,-0.813,-0.8149,-0.818,-0.8188,-0.8201,-0.8218,-0.8215,-0.8214,-0.8216,-0.8215,-0.8189,-0.8224,-0.8224,-0.8224,-0.8224,0,-0.7837,-0.7849,-0.7899,-0.791,-0.7925,-0.7961,-0.7974,-0.7997,-0.8025,-0.8041,-0.8071,-0.8085,-0.8125,-0.8143,-0.8167,-0.8184,-0.819,-0.8203,-0.8209,-0.82,-0.8199,-0.8209,-0.821,-0.8224,-0.8224,-0.8224,-0.8224,0,-0.7801,-0.7835,-0.7857,-0.7901,-0.7912,-0.7921,-0.7958,-0.797,-0.7995,-0.8015,-0.8021,-0.806,-0.8083,-0.8116,-0.8149,-0.8165,-0.8178,-0.8188,-0.8168,-0.8172,-0.8166,-0.8166,-0.8145,-0.8144,-0.818,-0.818,-0.8179,0,-0.7787,-0.7797,-0.7843,-0.7856,-0.7875,-0.7896,-0.7913,-0.7949,-0.7965,-0.8001,-0.8008,-0.8034,-0.8057,-0.8092,-0.8123,-0.8148,-0.8159,-0.815,-0.8163,-0.8154,-0.8159,-0.8158,-0.8159,-0.8147,-0.8146,-0.8146,-0.8145,0,-0.776,-0.7776,-0.7799,-0.7828,-0.7847,-0.7872,-0.7897,-0.7906,-0.7948,-0.7964,-0.7988,-0.8006,-0.804,-0.8065,-0.8095,-0.8115,-0.8137,-0.8141,-0.8142,-0.8132,-0.812,-0.8126,-0.8159,-0.8141,-0.8142,-0.8142,-0.8142,-0.8142,-0.7734,-0.7745,-0.7778,-0.7803,-0.7827,-0.785,-0.7863,-0.789,-0.7912,-0.7944,-0.7963,-0.7987,-0.8018,-0.806,-0.8079,-0.8097,-0.8106,-0.8107,-0.8107,-0.8107,-0.8103,-0.8117,-0.8103,-0.8103,-0.8103,-0.8103,-0.8103,0,-0.7708,-0.7731,-0.7754,-0.7789,-0.7809,-0.7829,-0.7858,-0.7873,-0.7894,-0.7921,-0.7943,-0.7971,-0.7996,-0.8029,-0.8055,-0.8064,-0.8074,-0.807,-0.8069,-0.8073,-0.8094,-0.8091,-0.8061,-0.8061,-0.8061,-0.8061,-0.8061,-0.8061,-0.7696,-0.7716,-0.7736,-0.7767,-0.779,-0.7815,-0.783,-0.7851,-0.7873,-0.7904,-0.7925,-0.7946,-0.7976,-0.8005,-0.8028,-0.8037,-0.8045,-0.8037,-0.8049,-0.8068,-0.8072,-0.8075,-0.8073,-0.8039,-0.8039,-0.8027,-0.8027,-0.8027]},{"header":{"parameterUnit":"m.s-1","parameterCategory":1,"la1":30.2991,"la2":30.254,"lo1":-89.0895,"lo2":-89.0444,"dy":0.0017,"dx":0.0017,"nx":28,"ny":28,"refTime":"2025-12-19T09:00:00:Z","depth":0,"parameterNumber":3,"parameterNumberName":"V-component_of_WINDS"},"data":[0,0,0,0,0,0,0,0,0,0,0,0,0,0,0,0,0,0,0,0,0,0,0,0,0,0,0,0,0,0,0,0,0,0,0,0,0,0,0,0,0,0,0,0,0,0,0,0,0,0,0,0,0,0,0,0,0,0,3.4114,3.4115,0,3.4257,3.4259,3.426,3.4293,3.4292,3.4291,3.429,3.4437,3.4442,3.4447,0,0,0,0,0,0,0,0,0,0,0,0,0,3.3872,3.3876,3.4114,3.4116,3.4117,3.4257,3.4259,3.4261,3.4293,3.4292,3.4291,3.429,3.4436,3.4441,3.4447,0,0,0,0,0,0,0,0,0,0,0,0,0,3.3992,3.3877,3.4113,3.415,3.4155,3.4256,3.4259,3.4261,3.4294,3.4292,3.4291,3.4289,3.4434,3.4441,3.4448,3.4523,0,0,3.447,3.4473,0,0,0,0,0,0,0,0,3.3985,3.4001,3.4143,3.4148,3.4154,3.4256,3.4227,3.4349,3.4294,3.4241,3.429,3.4288,3.4378,3.439,3.442,3.453,3.4536,3.4471,3.4475,3.4478,3.448,0,0,0,0,0,0,0,3.3977,3.3995,3.417,3.4145,3.4152,3.4161,3.4176,3.4251,3.4316,3.4246,3.4248,3.4265,3.4381,3.4413,3.4424,3.4538,3.4471,3.4477,3.4482,3.4484,3.472,3.4722,0,0,0,0,0,0,3.3962,3.3988,3.4166,3.4175,3.4064,3.4166,3.4184,3.4224,3.4315,3.4328,3.4266,3.4266,3.4401,3.4415,3.4429,3.4525,3.4478,3.4485,3.4489,3.4718,3.472,3.4722,0,0,0,0,0,0,3.3956,3.3977,3.416,3.4082,3.4106,3.4172,3.4218,3.4228,3.426,3.4331,3.4343,3.4287,3.4401,3.4419,3.45,3.453,3.4488,3.4495,3.4716,3.4719,3.4721,3.4715,0,0,0,0,0,0,3.3949,3.3975,3.4003,3.4082,3.411,3.4228,3.4219,3.4232,3.4273,3.4274,3.4353,3.4365,3.4401,3.4489,3.4507,3.4539,3.4501,3.4713,3.4717,3.472,3.4713,3.4717,3.4721,0,0,0,0,0,3.3941,3.3995,3.4004,3.4026,3.4147,3.4229,3.4245,3.4285,3.4275,3.4305,3.4351,3.4363,3.4524,3.4497,3.4518,3.4553,3.4712,3.4716,3.472,3.4711,3.4717,3.4721,0,0,0,0,0,0,3.3917,3.4006,3.4017,3.4099,3.4157,3.4235,3.4273,3.4289,3.435,3.4349,3.4396,3.4414,3.4493,3.4531,3.4499,3.4632,3.4618,3.4626,3.4604,3.4609,3.4613,3.4603,3.4507,0,0,0,0,0,3.3922,3.3981,3.4056,3.4121,3.4149,3.4206,3.4243,3.427,3.4331,3.4355,3.4407,3.4466,3.4531,3.4572,3.4635,3.4719,3.4738,3.4753,3.4757,3.4761,3.4768,3.4818,3.4826,3.4736,3.4736,3.4736,0,0,3.3931,3.3987,3.4022,3.4117,3.4165,3.4227,3.4226,3.429,3.4337,3.4365,3.4445,3.4486,3.4555,3.4639,3.4678,3.4673,3.4797,3.4766,3.4768,3.4774,3.4823,3.4831,3.4839,3.4739,3.4739,3.4738,0,0,3.3981,3.4028,3.4089,3.4137,3.4209,3.4247,3.4262,3.4339,3.4367,3.4448,3.4471,3.4528,3.4637,3.4687,3.4726,3.4798,3.4813,3.4817,3.4839,3.4887,3.4894,3.4901,3.4929,3.4938,3.4824,3.4824,3.4824,0,3.3984,3.4076,3.4118,3.4182,3.4225,3.4254,3.4317,3.4362,3.4451,3.448,3.4473,3.4613,3.4662,3.4759,3.4777,3.4807,3.4827,3.4808,3.489,3.4897,3.4904,3.4931,3.4941,3.4824,3.4824,3.4824,3.4824,0,3.4078,3.4142,3.4182,3.4269,3.4316,3.4379,3.4432,3.4475,3.4497,3.4537,3.4621,3.4681,3.4758,3.4783,3.4805,3.4884,3.4879,3.488,3.4867,3.4912,3.4938,3.4949,3.4824,3.4824,3.4824,3.4824,0,0,3.4115,3.4225,3.4239,3.428,3.4363,3.4415,3.448,3.4556,3.4593,3.4654,3.4712,3.4805,3.4808,3.4853,3.4881,3.4924,3.498,3.4921,3.4923,3.4931,3.5074,3.5073,3.5084,3.499,3.4992,3.4994,3.5068,0,3.4175,3.4293,3.4334,3.4432,3.4493,3.4523,3.4581,3.4639,3.4678,3.4737,3.4781,3.4847,3.4845,3.4873,3.4916,3.4964,3.5009,3.4959,3.5045,3.5048,3.5028,3.5097,3.5096,3.5163,3.5079,3.508,3.5082,0,3.4261,3.4325,3.4429,3.4507,3.4535,3.4585,3.466,3.4715,3.4783,3.4809,3.4861,3.4887,3.4959,3.4941,3.5042,3.5007,3.5045,3.5075,3.5078,3.5089,3.5068,3.5111,3.5186,3.5196,3.5098,3.5097,3.5095,0,3.428,3.4391,3.4469,3.4503,3.4596,3.4631,3.4672,3.4738,3.4782,3.4848,3.4877,3.495,3.499,3.5046,3.5092,3.5075,3.519,3.5176,3.5215,3.5214,3.5238,3.5236,3.5321,3.526,3.526,3.526,3.526,0,3.4343,3.4406,3.4479,3.4527,3.4599,3.4646,3.4717,3.476,3.4819,3.4877,3.4907,3.4961,3.5018,3.508,3.5116,3.5196,3.5213,3.5237,3.5246,3.5235,3.5232,3.5261,3.5258,3.5263,3.5262,3.5262,3.5261,0,3.4376,3.4427,3.4514,3.4596,3.4618,3.4668,3.4739,3.4787,3.4829,3.4902,3.4922,3.4987,3.5062,3.5114,3.5209,3.5234,3.532,3.5328,3.5297,3.5302,3.5339,3.5335,3.5447,3.5465,3.5391,3.5391,3.5392,0,3.4414,3.4463,3.4551,3.4592,3.4633,3.4698,3.4744,3.4793,3.484,3.4923,3.4962,3.5039,3.5103,3.5221,3.5278,3.5352,3.5363,3.5397,3.5374,3.5362,3.5366,3.5363,3.5369,3.54,3.5401,3.5401,3.5402,0,3.4476,3.4499,3.4563,3.4638,3.4692,3.4752,3.4813,3.4845,3.4906,3.4957,3.5034,3.5084,3.5183,3.526,3.534,3.5383,3.5404,3.5409,3.5422,3.5411,3.5392,3.5405,3.5308,3.5406,3.5405,3.5405,3.5405,3.5405,3.4513,3.456,3.4629,3.4701,3.4753,3.481,3.486,3.4909,3.4974,3.5059,3.5084,3.5165,3.5235,3.5345,3.539,3.5455,3.5452,3.5471,3.5476,3.548,3.5481,3.5382,3.5469,3.5469,3.5469,3.5469,3.5469,0,3.4578,3.4625,3.4691,3.4776,3.4833,3.4847,3.4917,3.4964,3.5035,3.5098,3.5161,3.5252,3.5327,3.5391,3.547,3.551,3.5521,3.5529,3.5527,3.5537,3.5478,3.5459,3.5518,3.5518,3.5518,3.5518,3.5518,3.5518,3.4619,3.4699,3.4731,3.4838,3.4885,3.4965,3.5004,3.5058,3.5109,3.5208,3.5271,3.5313,3.5377,3.5462,3.5532,3.5549,3.5578,3.5583,3.5603,3.5546,3.5541,3.5535,3.5518,3.5589,3.5589,3.5657,3.5657,3.5658]}]]